KTEXKHVE

Guest
Details From KTEX - Telluride Rgnl
To KHVE - Hanksville Airport
Flight Number -
Tags generated
Created
Modified
Stats Distance 141 nm / 261 km
Max Altitude 8,900 ft / 2,713 m
Waypoints 3
Social Downloads 1
Likes 0
Share VATSIM

Download

Looking for another format? Having issues loading an existing format? Contact us
Advertisement - Login to hide

Notes

Basic altitude profile: - Ascent Rate: 1320ft/min - Ascent Speed: 250kts - Cruise Altitude: 35000ft - Cruise Speed: 161kts - Descent Rate: 1500ft/min - Descent Speed: 250kts Options: - Use NATs: no - Use PACOTS: no - Use low airways: no - Use high airways: no

Route

KTEX 3800N11000W KHVE

ID Type Via Altitude Latitude Longitude Leg Dist Tot Dist Heading (true) Name
O KTEX APT - 0 ft / 0 m 37.95381˚ -107.90874˚ - 0 nm - Telluride Rgnl
3800N11000W LATLON - 8,900 ft / 2,713 m 38.00000˚ -110.00000˚ 99 nm 99 nm 272° / 271° -
O KHVE APT - 0 ft / 0 m 38.41941˚ -110.70242˚ 41 nm 140 nm 307° / 307° Hanksville Airport

Altitude Profile

Advertisement - Login to hide

KTEX

Details ICAO KTEX (TEX)
Name Telluride Rgnl
Region United States
Timezone America/Denver (UTC-6.0)
Stats Elevation 9,078 ft / 2,767 m (AMSL)
Location 37.953812° -107.908742°
Runways 1
Magnetic Variation 9.377° E

METAR

KTEX 210735Z AUTO 11003KT 10SM CLR 08/M11 A3021 RMK AO2 T00791111

Decode

TAF

KTEX 210530Z 2106/2206 13005KT P6SM FEW080 SCT250 FM211500 16009KT P6SM FEW250 FM211800 17012G22KT P6SM FEW080 SCT110 FM212200 16009KT P6SM SCT060 BKN100

Decode

Departure Runways

ID Width Length Bearing (true) Bearing (mag) Surface Threshold Offset Overrun Length
09 98 ft / 30 m 7,095 ft / 2,163 m 104.96° 95.58° Asphalt 200 ft / 61 m 400 ft / 122 m
27 98 ft / 30 m 7,095 ft / 2,163 m 284.98° 275.60° Asphalt 200 ft / 61 m 400 ft / 122 m

KHVE

Details ICAO KHVE
Name Hanksville Airport
Region United States
Timezone America/Denver (UTC-6.0)
Stats Elevation 4,443 ft / 1,354 m (AMSL)
Location 38.419414° -110.702422°
Runways 2
Magnetic Variation 10.571° E

METAR

KHVE 210735Z AUTO 00000KT 10SM CLR 17/02 A2993 RMK AO2

Decode

TAF

Not found

Destination Runways

ID Width Length Bearing (true) Bearing (mag) Surface Threshold Offset Overrun Length
08 75 ft / 23 m 5,681 ft / 1,731 m 97.96° 87.39° Asphalt 600 ft / 183 m 0 ft / 0 m
17 120 ft / 37 m 4,861 ft / 1,482 m 186.06° 175.49° Dirt 0 ft / 0 m 0 ft / 0 m
26 75 ft / 23 m 5,681 ft / 1,731 m 277.97° 267.40° Asphalt 600 ft / 183 m 0 ft / 0 m
35 120 ft / 37 m 4,861 ft / 1,482 m 6.06° 355.49° Dirt 0 ft / 0 m 0 ft / 0 m

Popular Alternatives